Stations météo

réclame
Mon MeteoGroup
Chivenor, Grande-Bretagne (3707): Température de l'air & dewpoint: 17.08.2019 03:00:00 - 23.08.2019 03:00:00 (BST)Chivenor, Grande-Bretagne (3707): Température de l'air -20cm & Température de l'air -100cm: 17.08.2019 03:00:00 - 23.08.2019 03:00:00 (BST)Chivenor, Grande-Bretagne (3707): Vitesse du vent & gusts: 17.08.2019 03:00:00 - 23.08.2019 03:00:00 (BST)Chivenor, Grande-Bretagne (3707): Direction du vent: 17.08.2019 03:00:00 - 23.08.2019 03:00:00 (BST)Chivenor, Grande-Bretagne (3707): reduced air pressure: 17.08.2019 03:00:00 - 23.08.2019 03:00:00 (BST)Chivenor, Grande-Bretagne (3707): visibility: 17.08.2019 03:00:00 - 23.08.2019 03:00:00 (BST)Chivenor, Grande-Bretagne (3707): Quantités de précipitations: 17.08.2019 03:00:00 - 23.08.2019 03:00:00 (BST)
Date & Time tt [°C] td [°C] tt -20cm [°C] tt -100cm [°C] ff [km/h] ff [knt] fx [km/h] fx [knt] dd ppp [hPa] vv [km] rr [mm]
23.08.2019 03:00:00 17,1 14,2 - - - - - - - 1025,3 50 0,0
23.08.2019 02:00:00 17,2 14,5 - - - - - - - 1025,3 40 0,0
23.08.2019 01:00:00 17,3 14,8 - - 0 0 - - N 1025,4 22 0,0
23.08.2019 00:00:00 17,5 14,8 - - 0 0 - - N 1025,6 35 0,0
22.08.2019 23:00:00 17,8 14,9 - - 0 0 - - N 1025,8 35 0,0
22.08.2019 22:00:00 17,9 15,0 - - 0 0 - - N 1025,7 22 0,0
22.08.2019 21:00:00 18,0 15,0 - - 0 0 - - N 1025,6 22 0,0
22.08.2019 20:00:00 18,3 15,3 - - 0 0 - - N 1025,3 19 0,0
22.08.2019 19:00:00 18,9 15,3 - - 0 0 - - N 1025,0 30 0,0
22.08.2019 18:00:00 19,4 14,9 - - 0 0 - - N 1025,1 29 0,0
22.08.2019 17:00:00 19,5 14,6 - - 0 0 - - N 1025,2 40 0,0
22.08.2019 16:00:00 20,2 14,6 - - 0 0 - - N 1025,1 45 0,0
22.08.2019 15:00:00 20,1 15,5 - - 0 0 - - N 1025,1 18 0,0
22.08.2019 14:00:00 21,0 15,3 - - 0 0 - - N 1025,0 22 0,0
22.08.2019 13:00:00 20,0 14,8 - - 0 0 - - N 1025,1 27 0,0
22.08.2019 12:00:00 19,4 14,4 - - 26 14 - - WSW 1025,0 35 0,0
22.08.2019 11:00:00 18,6 14,5 - - 21 11 - - SW 1025,1 30 0,0
22.08.2019 10:00:00 17,3 13,9 17,7 17,9 21 11 - - SW 1024,9 35 0,0
22.08.2019 09:00:00 15,9 13,1 - - 16 9 - - SW 1024,9 45 0,0
22.08.2019 08:00:00 15,6 13,1 - - 22 12 - - SW 1024,8 11 0,0
22.08.2019 07:00:00 15,0 12,8 - - 15 8 - - SSW 1024,2 40 0,0
22.08.2019 06:00:00 14,4 12,3 - - 8 4 - - SSW 1024,1 30 0,0
22.08.2019 05:00:00 14,0 12,5 - - 11 6 - - S 1024,4 40 0,0
22.08.2019 04:00:00 12,7 11,4 - - 5 3 - - SE 1024,6 23 0,0
22.08.2019 03:00:00 12,6 11,0 - - 5 3 - - SE 1024,8 27 0,0
22.08.2019 02:00:00 13,1 11,0 - - 9 5 - - S 1025,0 30 0,0
22.08.2019 01:00:00 13,9 11,5 - - 9 5 - - SSW 1025,2 23 0,0
22.08.2019 00:00:00 14,1 11,8 - - 11 6 - - SSW 1025,2 30 0,0
21.08.2019 23:00:00 14,5 11,8 - - 9 5 - - SSW 1025,2 35 0,0
21.08.2019 22:00:00 14,9 11,5 - - 9 5 - - SSW 1025,6 35 0,0
21.08.2019 21:00:00 16,1 11,7 - - 11 6 - - SW 1025,4 45 0,0
21.08.2019 20:00:00 16,9 12,0 - - 22 12 - - WSW 1025,1 45 0,0
21.08.2019 19:00:00 17,7 12,3 - - 22 12 - - W 1025,2 28 0,0
21.08.2019 18:00:00 18,3 11,7 - - 22 12 - - W 1025,3 40 0,0
21.08.2019 17:00:00 18,1 12,9 - - 22 12 - - W 1025,6 27 0,0
21.08.2019 16:00:00 19,2 12,9 - - 16 9 - - WSW 1025,5 45 0,0
21.08.2019 15:00:00 19,6 12,0 - - 24 13 - - W 1025,7 45 0,0
21.08.2019 14:00:00 19,7 10,7 - - 16 9 - - SW 1026,0 35 0,0
21.08.2019 13:00:00 19,4 9,8 - - 22 12 - - WSW 1026,3 50 0,0
21.08.2019 12:00:00 18,0 11,9 - - 18 10 - - WSW 1027,0 40 0,0
21.08.2019 11:00:00 18,0 11,9 - - 16 9 - - SW 1027,0 40 0,0
21.08.2019 10:00:00 16,9 12,9 17,5 17,9 15 8 - - SSW 1026,9 25 0,0
21.08.2019 09:00:00 14,9 13,0 - - 11 6 - - ENE 1027,1 30 0,0
21.08.2019 08:00:00 13,6 12,7 - - 11 6 - - E 1027,2 23 0,0
21.08.2019 07:00:00 12,0 11,2 - - 9 5 - - ESE 1026,9 15 0,0
21.08.2019 06:00:00 11,9 11,0 - - 11 6 - - E 1026,8 14 0,0
21.08.2019 05:00:00 12,1 11,2 - - 11 6 - - E 1026,9 3,9 0,0
21.08.2019 04:00:00 12,5 11,4 - - 11 6 - - ESE 1026,8 15 0,0
21.08.2019 03:00:00 12,9 11,7 - - 4 2 - - NNW 1026,9 28 0,0
21.08.2019 02:00:00 13,2 11,8 - - 5 3 - - S 1027,0 27 0,0
21.08.2019 01:00:00 14,0 12,3 - - 11 6 - - SSW 1027,0 40 0,0
21.08.2019 00:00:00 14,4 12,6 - - 13 7 - - SSW 1027,0 35 0,0
20.08.2019 23:00:00 15,4 12,7 - - 11 6 - - SSW 1027,0 40 0,0
20.08.2019 22:00:00 15,8 12,8 - - 18 10 - - W 1026,9 35 0,0
20.08.2019 21:00:00 16,3 13,7 - - 18 10 - - W 1026,6 28 0,0
20.08.2019 20:00:00 16,8 12,3 - - 21 11 - - W 1026,3 35 0,0
20.08.2019 19:00:00 17,7 12,1 - - 22 12 - - W 1026,0 35 0,0
20.08.2019 18:00:00 18,5 11,2 - - 22 12 - - W 1025,7 45 0,0
20.08.2019 17:00:00 18,8 11,1 - - 24 13 - - W 1025,5 28 0,0
20.08.2019 16:00:00 18,2 10,7 - - 22 12 - - W 1025,6 28 0,0
20.08.2019 15:00:00 18,0 11,1 - - 22 12 - - W 1025,5 21 0,0
20.08.2019 14:00:00 17,6 9,8 - - 18 10 - - W 1025,4 29 0,0
20.08.2019 13:00:00 17,6 10,0 - - 16 9 - - W 1025,2 15 0,0
20.08.2019 12:00:00 17,4 10,1 - - 16 9 - - W 1025,0 18 0,0
20.08.2019 11:00:00 17,2 10,0 - - 18 10 - - WNW 1024,6 27 0,0
20.08.2019 10:00:00 16,3 9,2 17,4 18,0 18 10 - - WNW 1024,0 22 0,0
20.08.2019 09:00:00 15,7 9,4 - - 22 12 - - NW 1023,4 25 0,0
20.08.2019 08:00:00 14,9 9,8 - - 15 8 - - NW 1022,7 35 0,0
20.08.2019 07:00:00 13,5 9,5 - - 13 7 - - NW 1022,1 25 0,0
20.08.2019 06:00:00 13,5 9,0 - - 16 9 - - NW 1021,6 25 0,0
20.08.2019 05:00:00 13,6 9,0 - - 13 7 - - NW 1021,1 24 0,0
20.08.2019 04:00:00 13,8 9,6 - - 15 8 - - NW 1020,8 25 0,0
20.08.2019 03:00:00 14,4 10,3 - - 0 0 - - N 1020,3 27 0,4
20.08.2019 02:00:00 14,0 11,1 - - 0 0 - - N 1020,2 25 1,4
20.08.2019 01:00:00 15,4 12,0 - - 0 0 - - N 1019,9 19 0,0
20.08.2019 00:00:00 15,6 11,4 - - 0 0 - - N 1019,9 17 0,0
19.08.2019 23:00:00 15,4 10,8 - - 0 0 - - N 1019,6 21 0,0
19.08.2019 22:00:00 15,2 10,1 - - 0 0 - - N 1019,2 24 0,0
19.08.2019 21:00:00 15,6 10,2 - - 0 0 - - N 1018,6 30 0,0
19.08.2019 20:00:00 15,7 10,1 - - 0 0 - - N 1018,3 30 0,0
19.08.2019 19:00:00 16,5 11,2 - - 0 0 - - N 1017,9 35 0,0
19.08.2019 18:00:00 17,9 12,1 - - 0 0 - - N 1017,7 30 0,0
19.08.2019 17:00:00 17,0 11,5 - - 28 15 - - W 1017,4 24 0,0
19.08.2019 16:00:00 18,7 11,4 - - 34 18 - - W 1017,2 22 0,0
19.08.2019 15:00:00 18,9 11,3 - - 29 16 - - W 1017,1 30 0,0
19.08.2019 14:00:00 18,0 10,8 - - 29 16 - - W 1016,8 17 0,0
19.08.2019 13:00:00 18,5 11,0 - - 34 18 46 25 W 1016,1 17 0,0
19.08.2019 12:00:00 17,8 10,7 - - 31 17 - - W 1015,5 35 0,0
19.08.2019 11:00:00 17,6 12,1 - - 34 18 - - W 1014,9 25 0,2
19.08.2019 10:00:00 16,3 12,3 17,7 18,0 29 16 - - WNW 1014,2 30 0,0
19.08.2019 09:00:00 15,6 12,8 - - 26 14 - - WNW 1013,4 19 0,0
19.08.2019 08:00:00 15,4 12,8 - - 24 13 - - W 1012,7 30 0,8
19.08.2019 07:00:00 14,7 12,6 - - 24 13 - - WNW 1012,1 19 0,4
19.08.2019 06:00:00 14,7 12,3 - - 24 13 - - WNW 1011,6 17 0,2
19.08.2019 05:00:00 15,4 12,2 - - 26 14 - - W 1011,2 27 0,0
19.08.2019 04:00:00 15,2 11,9 - - 24 13 - - W 1010,9 19 0,0
19.08.2019 03:00:00 15,4 12,3 - - 29 16 48 26 W 1010,9 16 0,2
19.08.2019 02:00:00 15,9 11,6 - - 34 18 48 26 W 1010,9 18 0,0
19.08.2019 01:00:00 16,0 11,5 - - 34 18 54 29 W 1010,5 15 0,0
19.08.2019 00:00:00 15,8 11,0 - - 31 17 48 26 W 1010,3 16 0,0
18.08.2019 23:00:00 15,8 11,4 - - 29 16 52 28 W 1010,0 16 0,0
18.08.2019 22:00:00 15,6 11,5 - - 31 17 46 25 W 1009,4 13 0,0
18.08.2019 21:00:00 14,8 11,8 - - 28 15 57 31 W 1008,8 23 0,6
18.08.2019 20:00:00 16,8 11,5 - - 34 18 52 28 W 1008,4 21 0,0
18.08.2019 19:00:00 17,2 11,5 - - 42 23 57 31 W 1008,3 19 0,0
18.08.2019 18:00:00 17,4 11,0 - - 39 21 52 28 W 1008,1 16 0,0
18.08.2019 17:00:00 18,8 10,9 - - 39 21 57 31 W 1007,7 21 0,0
18.08.2019 16:00:00 19,2 11,1 - - 37 20 54 29 W 1007,4 35 0,0
18.08.2019 15:00:00 17,2 13,3 - - 35 19 57 31 WSW 1007,2 25 0,0
18.08.2019 14:00:00 18,6 11,3 - - 35 19 50 27 W 1006,4 24 0,0
18.08.2019 13:00:00 19,0 12,4 - - 35 19 50 27 W 1006,2 20 0,0
18.08.2019 12:00:00 18,1 11,6 - - 31 17 46 25 W 1005,9 30 0,2
18.08.2019 11:00:00 16,9 11,9 - - 28 15 48 26 W 1005,2 14 0,0
18.08.2019 10:00:00 16,0 11,3 17,9 18,0 29 16 52 28 W 1004,7 40 0,2
18.08.2019 09:00:00 14,7 12,1 - - 28 15 48 26 W 1004,0 19 0,0
18.08.2019 08:00:00 14,1 11,2 - - 22 12 - - WSW 1003,3 30 1,0
18.08.2019 07:00:00 14,5 12,5 - - 16 9 - - SW 1002,9 19 1,4
18.08.2019 06:00:00 13,7 11,8 - - 16 9 - - SSW 1002,6 35 0,0
18.08.2019 05:00:00 13,7 11,3 - - 13 7 - - SW 1002,8 40 1,6
18.08.2019 04:00:00 14,9 12,6 - - 16 9 - - SSW 1003,0 35 0,0
18.08.2019 03:00:00 14,7 12,4 - - 15 8 - - SSW 1003,3 24 0,0
18.08.2019 02:00:00 14,5 12,3 - - 13 7 - - SSW 1003,7 35 0,0
18.08.2019 01:00:00 14,5 11,7 - - 15 8 54 29 SSW 1004,1 35 0,0
18.08.2019 00:00:00 14,7 11,4 - - 15 8 - - SSW 1004,4 30 0,0
17.08.2019 23:00:00 15,4 10,4 - - 15 8 - - SW 1004,7 45 0,0
17.08.2019 22:00:00 16,0 11,4 - - 21 11 - - SW 1005,3 35 0,0
17.08.2019 21:00:00 16,9 11,8 - - 26 14 - - WSW 1005,3 28 0,0
17.08.2019 20:00:00 17,3 12,4 - - 28 15 - - WSW 1004,8 22 0,0
17.08.2019 19:00:00 16,6 13,8 - - 18 10 - - W 1005,6 17 0,0
17.08.2019 18:00:00 18,2 11,8 - - 35 19 - - WSW 1005,8 22 0,0
17.08.2019 17:00:00 19,5 11,0 - - 34 18 - - W 1005,5 29 0,0
17.08.2019 16:00:00 19,1 11,0 - - 31 17 - - W 1005,8 45 0,0
17.08.2019 15:00:00 17,7 12,9 - - 31 17 52 28 W 1005,9 28 0,4
17.08.2019 14:00:00 19,6 10,6 - - 24 13 - - W 1005,8 30 0,0
17.08.2019 13:00:00 20,1 12,7 - - 26 14 - - W 1005,8 30 0,0
17.08.2019 12:00:00 19,1 12,1 - - 24 13 - - W 1005,7 30 0,0
17.08.2019 11:00:00 19,6 14,2 - - 28 15 - - W 1005,6 22 0,0
17.08.2019 10:00:00 17,6 12,9 17,7 18,2 24 13 - - W 1005,4 24 0,0
17.08.2019 09:00:00 17,1 13,2 - - 28 15 - - W 1005,0 18 0,0
17.08.2019 08:00:00 16,5 13,0 - - 24 13 - - W 1004,5 18 0,0
17.08.2019 07:00:00 16,0 14,6 - - 29 16 46 25 W 1003,8 13 0,6
17.08.2019 06:00:00 16,7 13,6 - - 31 17 - - WSW 1003,5 13 0,0
17.08.2019 05:00:00 16,6 13,8 - - 24 13 - - WSW 1003,4 13 0,0
17.08.2019 04:00:00 16,3 13,6 - - 21 11 - - SW 1003,5 13 0,0
17.08.2019 03:00:00 16,1 13,6 - - 22 12 - - WSW 1003,6 14 0,0

tt = Température de l'air
td = dewpoint
tt -20cm = Température de l'air -20cm
tt -100cm = Température de l'air -100cm
ff = Vitesse du vent
fx = gusts
dd = Direction du vent
ppp = reduced air pressure
vv = visibility
rr = Quantités de précipitations

stations d'obs. à proximité